{"data":{"norad_id":59535,"epoch":"2026-05-25T00:50:01.070304Z","epoch_age_seconds":68488,"freshness":"FRESH","line1":"1 59535U 24074B   26145.03473461  .00003980  00000+0  15405-3 0  9997","line2":"2 59535  43.0018 268.5358 0000868 298.8555  61.2209 15.27583444117738","mean_motion":15.27583444,"eccentricity":8.68e-5,"inclination_deg":43.0018,"raan_deg":268.5358,"arg_perigee_deg":298.8555,"mean_anomaly_deg":61.2209,"bstar":0.00015405,"rev_number":11773,"period_min":94.266536185371,"perigee_km":482.44323342605,"apogee_km":483.63433354206,"semimajor_km":6861.1757834841,"source":"CELESTRAK","updated_at":"2026-05-25T13:38:18.978440Z"}}